Pagina principale
METAR-TAF:

METAR-TAF

Aeroporti :

Maragheh, Iran

latitudine: 37-20-55N, longitudine: 046-07-35E, altezza: 1340 m

Osservazione

Il bollettino è stato emesso 46 minuti fa, alle 06:00 UTC
Vento 16 kt da est
Temperature 28°C
Umidità 22%
Pressione 1015 hPa
Visibilità 10 km o più
nessuna nube inferiore a 1500 m e nessun cumulonembo

METAR: OITM 270600Z 10016KT CAVOK 28/04 Q1015

Ora: 11:16 (06:46 UTC)


TAF: mancante

Osservazioni e previsioni meteorologiche di più di 4000 aeroporti (messaggi METAR e TAF).

Le stazioni disponibili sono rappresentate dai dischi gialli e rossi sulla carta.

Puntare il mouse per vedere il nome della stazione.

Clicca sopra per visualizzare le osservazioni e previsioni meteorologiche.

Per cambiare la mappa : fare clic sui pulsanti verdi con una croce nera per ingrandire, il pulsante verde con un trattino per diminuire, o sulla freccia verde per le mappe adiacenti.


METAR-TAF: